Showing default

FLOCK 4G 2, 62661

Orbit data source: Space-Track

FLOCK 4G 2, 62661 is a payload satellite owned by Planet (US) in SSO that was launched on Tue, 14 Jan 2025 UTC via an FALCON 9 launch vehicle from the Air Force Western Test Range (AFWTR). Payload-class satellites include a variety of spacecraft equipped with specific instruments for various scientific and technological missions. These include communications satellites like Starlink; space stations such as the ISS; scientific satellites like the Hubble; Earth observation satellites from companies like Planet Labs, Umbra, and HawkEye 360; GPS; miniature CubeSats for education and research; and military/defense satellites.

Loading next visibility...
Identifier
62661, 2025-009BE
Orbit
SSO
Country
Flag of USUS
Related business
Manufacturer
Planet
Mission
Operational Commercial Imaging
Bus & Motor
CUBESAT 3U, Unknown motor
Mass
5.7 kg wet, 5.7 kg dry
Launch date (UTC)
2025-01-14 (1 year ago)
Launch vehicle
FALCON 9
Launch site
Air Force Western Test Range (AFWTR)
Object type
Payload
Rocket body
Debris
Shape & HBR
Box + 2 Pan, 1.0 m
Radar Cross Section
0.072 m², Medium (>0.1 m² and < 1m²)

Expand to show TLE details & history
Last TLE update: 22 hours ago

TLE from 22 hours ago
0 FLOCK 4G 2
1 62661U 25009BE  26034.45958853  .00013248  00000-0  50632-3 0  9996
2 62661  97.4112 117.2634 0005538  81.7879 278.3988 15.26721426116102
Epoch: 2026-02-03T11:01Z
TLE epoch observation values (Epoch: 2026-02-03T11:01:48.448Z)
Latitude
-0.00002°
Longitude
178.17132°
Altitude
488.167 km
Speed
7.621 km/s
True Right ascension
07h 49m 03s
True Declination
0° 00' 00"
Sunlit
Object was in full shadow at epoch
Visualization orbit readout
Latitude
Unknown
Longitude
Unknown
Altitude
Unknown
Speed
Unknown
Apparent Right ascension
Unknown
Apparent Declination
Unknown
Sunlit
N/A
Visualization observer readout
Local Sidereal Time
11:13:09
Azimuth
Unknown
Elevation
Unknown
Doppler factor
Unknown
Orbital elements
Apogee altitude
486.378 km
Perigee altitude
478.779 km
Semi-major axis
6,860.715 km
Eccentricity
0.00055
Inclination
97.4112°
RAAN
117.2634°
Arg. of periapsis
81.7879°
True anomaly
278.33601°
Mean anomaly
278.3988°
Eccentric anomaly
278.36741°
Mean motion
3.81935 °/min
Orbital period
94.26 mins
BSTAR
0.00050632
Loading maneuver chart data...
Computing Atmospheric mass density...
Loading historical data...
Loading historical data...
Loading historical data...
Loading historical data...
Loading historical data...
Loading historical data...
Loading historical data...

Documentation

Showing up to 5 results
|